{"data":{"norad_id":63438,"epoch":"2026-05-25T00:01:10.549056Z","epoch_age_seconds":78955,"freshness":"FRESH","line1":"1 63438U 25069F   26145.00081654  .00041634  00000+0  95997-3 0  9997","line2":"2 63438  53.1596 145.5113 0001345 105.3567 254.7588 15.42191553 65124","mean_motion":15.42191553,"eccentricity":0.0001345,"inclination_deg":53.1596,"raan_deg":145.5113,"arg_perigee_deg":105.3567,"mean_anomaly_deg":254.7588,"bstar":0.00095997,"rev_number":6512,"period_min":93.373614788564,"perigee_km":438.7256669377,"apogee_km":440.55964966578,"semimajor_km":6817.7796583017,"source":"CELESTRAK","updated_at":"2026-05-25T13:38:19.998435Z"}}